Regional Weather Roundup
Issued by NWS

Home | Current Version | Previous Version | Graphics & Text | Print | Product List | Glossary On
Versions: 1 2 3 4 5 6 7 8 9 10 11 12 13 14 15 16 17 18 19 20 21 22 23 24 25 26 27 28 29 30 31 32 33 34 35 36 37 38 39 40 41 42 43 44 45 46 47 48 49 50
000
ASUS43 KTOP 290759
RWRKS

WEATHER ROUNDUP FOR KANSAS
NATIONAL WEATHER SERVICE GOODLAND KS
300 AM CDT SUN MAR 29 2015

NOTE:  "FAIR" INDICATES FEW OR NO CLOUDS BELOW 12,000 FEET WITH NO
SIGNIFICANT WEATHER AND/OR OBSTRUCTIONS TO VISIBILITY.

KSZ001>006-013>018-027>032-041>047-290900-
NORTHWEST KANSAS

CITY           SKY/WX    TMP DP  RH WIND       PRES   REMARKS
GOODLAND       PTCLDY    57  30  35 NW9       29.90R
HAYS           CLEAR     57  39  51 S17G24    29.81F
HILL CITY      CLEAR     62  44  51 NW17G29   29.86R
RUSSELL        CLEAR     56  42  59 S23G29    29.79F
$$

KSZ061>065-074>080-084>089-290900-
SOUTHWEST KANSAS

CITY           SKY/WX    TMP DP  RH WIND       PRES   REMARKS
DODGE CITY     CLEAR     55  43  63 S18       29.87F
ELKHART          N/A     57  28  33 SW10        N/A
GARDEN CITY    CLEAR     50  42  74 S8        29.86S
GREAT BEND     CLEAR     55  39  54 S20G28    29.84F
LIBERAL        CLEAR     52  36  54 S12       29.91S
$$

KSZ066>073-081>083-090>101-290900-
SOUTHEAST KANSAS

CITY           SKY/WX    TMP DP  RH WIND       PRES   REMARKS
CHANUTE        CLEAR     41  37  86 SE12      29.99F
COFFEYVILLE    CLEAR     45  39  79 S12       30.01F
HUTCHINSON     CLEAR     52  40  63 S17       29.89F
MEDICINE LODGE   N/A     51  42  71 SE7       29.91F
NEWTON         CLEAR     48  37  66 S16       29.92F
PARSONS        CLEAR     46  40  79 SE9       30.01F
WICHITA INTL   CLEAR     51  41  68 S16       29.92F
WICHITA JABRA  CLEAR     50  41  71 S18G26    29.92F
WINFIELD       CLEAR     48  42  80 SE14      29.96F
$$

KSZ007>012-019>026-033>040-048>060-102>105-290900-
NORTHEAST KANSAS

CITY           SKY/WX    TMP DP  RH WIND       PRES   REMARKS
CONCORDIA      CLEAR     47  40  76 SE10      29.84F
EMPORIA        CLEAR     41  36  82 SE13      29.94F
LAWRENCE       CLEAR     38  33  82 SE10      29.99S WCI  31
MANHATTAN      CLEAR     45  38  76 S8        29.90F
OLATHE IND     CLEAR     37  32  82 SE16      29.99F WCI  28
OLATHE EXE     FAIR      37  33  85 S15       29.99F WCI  28
SALINA         CLEAR     52  40  63 S15       29.85F
TOPEKA BILLARD CLEAR     41  33  73 SE10      29.97F
TOPEKA FORBES  CLEAR     41  34  76 SE14      29.94F
$$



USA.gov is the U.S. government's official web portal to all federal, state and local government web resources and services.